Regional Weather Roundup
Issued by NWS New Orleans/Baton Rouge, LA

Home | Current Version | Previous Version | Text Only | Print | Product List | Glossary Off
Versions: 1 2 3 4 5 6 7 8 9 10 11 12 13 14 15 16 17 18 19 20 21 22 23 24 25 26 27 28 29 30 31 32 33 34 35 36 37 38 39 40 41 42 43 44 45 46 47 48 49 50

779
ASUS44 KLIX 271005
RWRLIX
NEW ORLEANS REGIONAL WEATHER ROUNDUP
NATIONAL WEATHER SERVICE NEW ORLEANS LA
400 AM CST TUE JAN 27 2015

NOTE: "FAIR" INDICATES FEW OR NO CLOUDS BELOW 12,000 FEET WITH NO
      SIGNIFICANT WEATHER AND/OR OBSTRUCTIONS TO VISIBILITY.
      SKY/WX - SKY CONDITION AND SIGNIFICANT WEATHER.
      TMP - AIR TEMPERATURE.     DP    - DEWPOINT TEMPERATURE.
      RH  - RELATIVE HUMIDITY.   PRES  - PRESSURE.
      HI  - HEAT INDEX.          WCI   - WIND CHILL INDEX.

*  THESE STATIONS ARE NOT NWS OR FAA STATIONS AND ARE NOT UNDER
   NWS QUALITY CONTROL.

LAZ038-040-048-061>063-065>067-069-271100-
SOUTHEAST LOUISIANA

CITY           SKY/WX    TMP DP  RH WIND       PRES   REMARKS
N.O. AUDUBON   NOT AVBL
N.O. INTL ARPT CLEAR     47  40  76 W7        30.07F
N.O. LAKEFRONT CLEAR     53  42  66 SW10      30.06F
N.O. DOWNTOWN*   N/A     48  37  66 S5        30.07F
SLIDELL        CLEAR     50  41  71 CALM      30.05F
BATON ROUGE    CLEAR     44  39  82 W5        30.07S
BOOTHVILLE     PTCLDY    52  47  83 W7        30.09F
BELLE CHASSE   CLEAR     48  42  80 W5        30.07F
BOGALUSA*        N/A     37  33  87 SW5       30.06S WCI  33
GALLIANO*      MOSUNNY   52  47  84 MISG      30.08F
NEW ROADS*       N/A     38  36  92 CALM      30.07S
GONZALES*        N/A     45  42  91 CALM      30.07F
HAMMOND*       CLEAR     46  37  71 CALM      30.07F
HOUMA*         CLEAR     45  45 100 CALM      30.08F FOG
PORT FOURCHON* SUNNY     55  50  82 W8        30.12F

$$

MSZ070-080>082-271100-
SOUTHERN MISSISSIPPI

CITY           SKY/WX    TMP DP  RH WIND       PRES   REMARKS
MCCOMB         CLEAR     46  35  65 W7        30.03F
GULFPORT       CLEAR     40  35  83 CALM      30.04F
BILOXI         CLEAR     46  38  71 W5        30.03F
PASCAGOULA     CLEAR     43  36  76 SW3       30.03F

$$

COASTAL OBSERVATIONS
LAKE AND NEARSHORE STATIONS

STATION/POSITION TIME  TEMP    WIND        PRES    WAVE
                       AIR SEA DIR/SP/G            HT/PER
                 (UTC) (F)     (DEG/KT/KT) (MB)    (FT/S)
PASCAGOULA       1000   52     260/ 13/ 16 1016.5
WAVELAND YACHT   1000   49     270/  5/  9 1016.4
GRAND ISLE       1000   55 56  280/ 12/ 14 1019.0
SOUTHWEST PASS   1000   58 45  300/ 14/ 19 1019.3
NEW CANAL        1000   52 52  230/  5/  8 1018.2
SHELL BEACH      1000   49 53  240/ 10/ 12 1017.8

OFFSHORE STATIONS

STATION/POSITION TIME  TEMP    WIND        PRES    WAVE
                       AIR SEA DIR/SP/G            HT/PER
                 (UTC) (F)     (DEG/KT/KT) (MB)    (FT/S)
64 S DAUPHIN ISL 0855   61 70  290/ 19/ 23 1018.1    5/ 5

$$




USA.gov is the U.S. government's official web portal to all federal, state and local government web resources and services.